Tracking 19192 objects as of 20-Jun-2018
HD Live streaming from Space Station
objects crossing your sky now

GSAT 3 (EDUSAT)

Track GSAT 3 (EDUSAT) now!
GSAT 3 (EDUSAT) is classified as:


NORAD ID: 28417
Int'l Code: 2004-036A
Perigee: 36,074.8 km
Apogee: 36,080.3 km
Inclination: 5.8 °
Period: 1,450.6 minutes
Semi major axis: 42448 km
RCS: 15.8866 m2 (large)
Launch date: September 20, 2004
Source: India (IND)
Launch site: SRIHARIKOTA (SRI)

Interactive education for remote areas of India; 6 C-band and 6 Ku-band transponders; first satellite dedicated to education.
aabbcc
Your satellite tracking list
Your tracking list is empty




NASA's NSSDC Master Catalog

Two Line Element Set (TLE):
1 28417U 04036A   18170.47503469 -.00000254  00000-0  00000+0 0  9991
2 28417   5.8443  59.9312 0000649 179.1154 150.0696  0.99267992 50122
Source of the keplerian elements: AFSPC